TIME,DELAY(SENSOR),PRES,T(CTD),SAL,OXYGEN,RAWTEMP,T(OPTODE),TCPHASE,FLUOR,BETA(BETA700),BETA(BETA412),BETA(BETA440),CDOM,C(CSC),ED(ED412.40),ED(ED444.00),ED(ED489.70),ED(ED554.30),LU(LU411.80),LU(LU443.40),LU(LU489.60),LU(LU554.10),COMP,TILTX,TILTX(TILTY),CHECK
1339277080,5809,497.1700134277344000,6.6848998069763180,34.1688995361328100,69.2729721069336000,597.1232299804688000,6.6771559715271000,50.1695289611816400,52,104,90,80,80,15316,2147752566,2147421604,2148003291,2147874633,2147635081,2147076608,2148244763,2147202761,1794,4,13,57524
1339277195,5809,486.6300048828125000,6.8102998733520510,34.1674995422363300,71.9022369384765600,593.6132202148438000,6.7903881072998050,49.7942886352539060,53,104,87,80,81,15317,2147750308,2147421970,2148004123,2147874733,2147631881,2147078582,2148246802,2147201152,2338,4,13,40851
1339277322,5808,474.7000122070312500,6.9486999511718750,34.1488990783691400,79.5108413696289000,589.4426879882812000,6.9247798919677730,48.8111686706543000,52,111,91,80,80,15314,2147749668,2147424000,2148002331,2147873408,2147633782,2147079140,2148248438,2147200137,48,4,13,27384
1339277439,5806,463.9599914550781000,7.0935997962951660,34.1348991394043000,90.1442565917968800,584.6683959960938000,7.0784277915954590,47.5206108093261700,52,106,90,80,80,15317,2147747337,2147421622,2148003008,2147875090,2147632356,2147084425,2148244699,2147202752,122,4,13,60281
1339277566,5809,452.9500122070312500,7.2582001686096190,34.1189994812011700,99.6176605224609400,579.7371215820312000,7.2369117736816410,46.4191207885742200,52,105,88,81,80,15314,2147746221,2147419858,2148002806,2147874377,2147631232,2147075126,2148240905,2147200704,73,5,13,62093
1339277695,5810,443.2000122070312500,7.5482001304626465,34.1119995117187500,109.6507034301757800,570.7836303710938000,7.5241007804870605,45.2401695251464840,50,106,91,82,80,15317,2147747053,2147420434,2147998034,2147874880,2147632859,2147083538,2148246500,2147204324,3477,4,13,33075
1339277882,5810,432.2900085449219000,7.8972001075744630,34.1021995544433600,121.5401992797851600,560.2280883789062000,7.8617730140686035,43.9082908630371100,51,107,87,81,79,15313,2147747218,2147423753,2148001664,2147874843,2147631058,2147081170,2148247478,2147202587,3436,4,14,18870
1339278090,5809,420.9800109863281000,8.3424997329711910,34.1039009094238300,140.8582000732422000,545.6970825195312000,8.3250751495361330,41.9252510070800800,50,116,89,81,77,15314,2147742345,2147424283,2148002203,2147873490,2147625590,2147087808,2148241673,2147203209,950,4,13,56856
1339278241,5807,409.5000000000000000,8.6756000518798830,34.1096992492675800,150.4978942871093800,535.4359130859375000,8.6512069702148440,40.9481010437011700,50,107,89,80,77,15312,2147745152,2147421220,2147999798,2147875145,2147622875,2147089362,2148238208,2147205513,1705,4,13,22226
1339278364,5804,397.7099914550781000,9.0096998214721680,34.1132011413574200,161.0489959716797000,524.2216796875000000,9.0066757202148440,39.9228210449218750,50,107,90,81,75,15310,2147743296,2147425206,2148003858,2147875254,2147623835,2147094829,2148234898,2147204489,3490,3,14,9394
1339278467,5809,386.3599853515625000,9.1335000991821290,34.1166000366210940,167.0359954833984400,518.9868164062500000,9.1722831726074220,39.3814506530761700,50,109,89,82,75,15312,2147740644,2147421092,2148002002,2147874285,2147623296,2147097984,2148232329,2147203483,450,5,13,11734
1339278570,5807,375.1000061035156000,9.6131000518798830,34.1217994689941400,177.4810028076172000,505.6445922851562500,9.5934553146362300,38.4005584716796900,50,106,87,81,74,15309,2147743808,2147421485,2148001088,2147874313,2147620525,2147097307,2148230930,2147205970,2011,4,14,28390
1339278688,5809,363.6600036621094000,9.9702997207641600,34.1379013061523440,183.4575958251953000,494.5611877441406000,9.9423589706420900,37.8012504577636700,50,107,90,80,73,15311,2147740973,2147421028,2148001782,2147875812,2147619702,2147100507,2148226898,2147204434,2372,4,14,55190
1339278839,5810,352.7600097656250000,10.2131004333496100,34.1492004394531250,184.1253051757812500,486.2138977050781000,10.2045803070068360,37.6144905090332000,50,110,94,80,73,15306,2147735981,2147422006,2148000210,2147874240,2147615698,2147105764,2148223780,2147208530,2604,4,14,63220
1339278994,5811,339.8099975585937500,10.4214000701904300,34.1570014953613300,184.3350982666015600,478.1856994628906000,10.4563398361206050,37.4652404785156250,50,110,87,82,73,15304,2147734985,2147424201,2148005449,2147876891,2147615780,2147104347,2148226596,2147204160,2950,4,13,20946
1339279097,5810,329.3599853515625000,10.6275997161865230,34.1621017456054700,185.2306060791015600,472.7817993164062500,10.6255702972412110,37.3153686523437500,50,110,88,81,73,15302,2147735003,2147425197,2148005339,2147872064,2147615661,2147106020,2148226395,2147205878,2450,3,13,2737
1339279212,5805,317.7300109863281000,10.8400001525878900,34.1673011779785160,188.1174011230468800,466.1931152343750000,10.8316497802734380,37.0142211914062500,50,109,90,82,73,15307,2147735542,2147423058,2148013833,2147872173,2147612178,2147105856,2148227181,2147208128,1381,3,14,5068
1339279317,5807,307.4500122070312500,11.5257997512817380,34.1869010925293000,188.8786926269531200,443.7464904785156000,11.5318098068237300,36.5954093933105500,50,108,88,82,72,15304,2147731986,2147429037,2148017142,2147873060,2147609508,2147108827,2148229147,2147208822,1069,3,13,2851
1339279444,5809,296.5199890136719000,11.7580003738403320,34.2034988403320300,191.3957061767578000,436.5563964843750000,11.7554903030395500,36.3148994445800800,49,110,91,81,71,15306,2147730843,2147431140,2148028690,2147872740,2147609536,2147115666,2148230628,2147208685,262,3,14,29464
1339279585,5809,285.8999938964844000,12.2242002487182620,34.2291984558105500,193.3688964843750000,422.0181884765625000,12.2069196701049800,35.9552116394043000,49,111,89,81,70,15306,2147732324,2147436041,2148041060,2147874166,2147607725,2147121389,2148236178,2147208749,2540,3,13,38895
1339279760,5809,274.9500122070312500,13.1548995971679690,34.2919006347656250,199.9671020507812500,391.8511962890625000,13.1403999328613280,35.0680198669433600,48,109,86,83,70,15307,2147730276,2147441929,2148061147,2147873188,2147603008,2147133888,2148238427,2147208932,2580,3,14,43133
1339279942,5809,261.2699890136719000,14.6070995330810550,34.3931007385253900,200.1405029296875000,345.2296142578125000,14.5758304595947270,34.3425788879394500,49,110,91,82,70,15306,2147730176,2147458477,2148095990,2147873984,2147596653,2147147291,2148249627,2147210889,1402,3,15,50431
1339280057,5809,249.7599945068359400,15.6881999969482420,34.4934005737304700,201.2776031494140600,310.3031921386719000,15.6467895507812500,33.7541694641113300,50,106,89,79,69,15303,2147731346,2147479579,2148139346,2147873179,2147595538,2147169508,2148268013,2147216786,1547,3,15,57748
1339280172,5809,238.6399993896484400,16.0993995666503900,34.5505981445312500,203.1699981689453000,294.4989929199219000,16.1305007934570300,33.4112014770507800,50,107,89,81,68,15299,2147731245,2147506532,2148206436,2147874953,2147590646,2147187629,2148296228,2147220406,451,4,13,35142
1339280289,5808,229.0000000000000000,17.1261005401611330,34.6638984680175800,204.3999023437500000,263.4677124023437500,17.0791397094726560,32.8920898437500000,50,109,91,80,69,15294,2147740699,2147537709,2148266633,2147871762,2147592548,2147206034,2148318692,2147222016,2467,4,14,60467
1339280464,5807,218.0099945068359400,17.6338996887207030,34.7263984680175800,207.7171020507812500,246.0252075195312500,17.6119403839111330,32.4554100036621100,51,107,90,81,67,15295,2147751113,2147597056,2148381952,2147872137,2147595382,2147251675,2148373385,2147224676,1626,3,15,1749
1339280621,5812,206.5399932861328000,19.2367000579834000,34.8899002075195300,207.4013977050781200,192.9938964843750000,19.2316303253173830,31.7366905212402340,57,112,87,81,66,15284,2147791497,2147694893,2148558902,2147871588,2147604022,2147315867,2148454747,2147232000,3142,4,14,18019
1339280736,5807,197.6600036621093800,19.9810009002685550,34.9747009277343750,211.4579925537109400,168.5404052734375000,19.9791507720947270,31.1820106506347660,62,111,91,81,66,15274,2147844754,2147805220,2148748233,2147874230,2147623405,2147386148,2148535616,2147243885,1622,2,16,16524
1339280791,5809,193.2700042724609400,20.1198997497558600,34.9929008483886700,212.8988037109375000,164.2266998291015600,20.1110992431640620,31.0463695526123050,63,109,87,81,65,15273,2147879085,2147880155,2148870061,2147874779,2147638336,2147434880,2148595282,2147243565,2018,1,16,29725
1339280866,5810,188.0299987792968800,20.3672008514404300,35.0228996276855500,214.4183959960937500,155.8979034423828000,20.3659591674804700,30.8538398742675780,64,112,90,80,65,15274,2147933412,2147973421,2149030281,2147873737,2147659282,2147488429,2148669366,2147251136,1693,2,16,20847
1339280933,5807,183.6199951171875000,20.4186992645263670,35.0295982360839840,215.4100952148437500,154.4707031250000000,20.4096508026123050,30.7827091217041000,64,109,92,80,65,15275,2147999122,2148067437,2149189339,2147874441,2147681901,2147552448,2148749961,2147255424,1341,3,16,57130
1339280988,5804,179.9799957275390600,20.6667003631591800,35.0550994873046900,214.7527008056640600,143.2886047363281200,20.7520599365234380,30.6685791015625000,67,113,89,81,65,15271,2148059510,2148172233,2149345508,2147874861,2147711414,2147604105,2148827638,2147259090,1469,2,15,13814
1339281055,5811,176.3500061035156200,21.2241992950439450,35.0927009582519500,216.4629058837890600,129.1237030029297000,21.1862106323242200,30.3917407989501950,76,116,89,83,64,15264,2148131392,2148277641,2149518454,2147877193,2147740379,2147670299,2148898752,2147269723,641,3,15,24067
1339281146,5808,172.6799926757812500,21.3164997100830080,35.1040000915527340,218.6380004882812500,125.2515029907226600,21.3049793243408200,30.2285804748535160,79,116,89,81,64,15259,2148229558,2148416310,2149732489,2147877814,2147783707,2147754907,2149000704,2147277129,3273,2,16,17025
1339281251,5806,168.9799957275390600,21.5431995391845700,35.1225013732910160,220.4174041748047000,117.9847030639648400,21.5279808044433600,30.0429801940917970,85,115,90,83,63,15251,2148354925,2148572361,2149962276,2147881124,2147838875,2147839149,2149104493,2147285961,747,2,15,48331
1339281378,5807,165.0099945068359400,21.8358001708984380,35.1366004943847660,221.3957061767578000,109.0341033935546900,21.8028602600097660,29.8770008087158200,92,117,92,82,62,15244,2148523264,2148793792,2150294747,2147882843,2147914486,2147950372,2149250102,2147294857,128,2,15,12889
1339281537,5809,160.9299926757812500,22.1410999298095700,35.1489982604980500,225.4739990234375000,98.1864700317382800,22.1363391876220700,29.5339107513427730,99,122,92,83,63,15225,2148701476,2148979364,2150550016,2147883657,2147998710,2148052909,2149355876,2147305161,1613,2,16,58730
1339281652,5807,157.0800018310547000,22.3379993438720700,35.1579017639160160,228.5635986328125000,91.9811172485351600,22.3272705078125000,29.3038005828857420,107,122,95,84,62,15218,2148973138,2149300050,2151024054,2147890496,2148125449,2148213449,2149542372,2147322596,597,2,15,57280
1339281779,5807,152.6199951171875000,22.4178009033203120,35.1529006958007800,230.2960052490234400,88.7039871215820300,22.4281692504882800,29.1789608001709000,115,123,93,84,62,15213,2149444461,2149856594,2151848155,2147895780,2148330797,2148486189,2149886345,2147346806,2844,2,16,4436
1339281869,5810,148.2700042724609400,22.5137996673584000,35.1596984863281250,231.6916046142578000,86.4626388549804700,22.4971904754638670,29.0838909149169920,122,124,93,83,62,15207,2149955035,2150434240,2152639305,2147905088,2148559844,2148754093,2150204681,2147379465,2540,2,16,41116
1339281936,5810,144.1499938964843800,22.6868991851806640,35.1528015136718750,232.8787994384765600,80.8097229003906200,22.6713695526123050,28.9561691284179700,130,126,91,84,62,15185,2150559826,2151125184,2153552749,2147914770,2148814144,2149061083,2150560155,2147405805,3386,2,16,44734
1339282003,5809,140.1300048828125000,22.7628002166748050,35.1530990600585940,233.9709014892578000,75.6174468994140600,22.8314609527587900,28.8391990661621100,135,125,91,83,61,15178,2151295296,2151949741,2154625124,2147926555,2149129472,2149403264,2150966601,2147444553,77,2,16,21591
1339282070,5809,136.3699951171875000,22.9584999084472660,35.1529006958007800,236.3899993896484400,71.9500732421875000,22.9445896148681640,28.6807098388671880,125,127,92,84,60,15184,2152076233,2152823460,2155712393,2147940964,2149480210,2149796251,2151399387,2147478354,3490,2,16,58151
1339282151,5808,132.1000061035156200,23.0286998748779300,35.1511993408203100,238.3332977294922000,69.4607925415039000,23.0214195251464840,28.5603599548339840,128,124,92,84,62,15187,2153187501,2154058450,2157237184,2147962057,2150011812,2150367460,2152035894,2147534445,2568,2,16,7757
1339282230,5809,128.2799987792968800,23.0398998260498050,35.1505012512207000,239.3580932617187500,68.7985229492187500,23.0418605804443360,28.5055809020996100,124,123,93,84,61,15178,2154468708,2155429028,2158862482,2147984539,2150627419,2151031881,2152740946,2147602084,1752,1,16,11010
1339282309,5808,124.7900009155273400,23.2169990539550780,35.1413002014160160,239.7209930419922000,63.7938003540039060,23.1964092254638670,28.4261703491210940,124,121,90,85,61,15188,2155889490,2156942272,2160653851,2148012964,2151309805,2151751890,2153470829,2147673435,1074,2,16,45091
1339282424,5809,121.4199981689453100,23.4181995391845700,35.1358985900878900,240.2976074218750000,57.0128288269043000,23.4059791564941400,28.3155193328857420,123,125,90,85,60,15177,2157362075,2158459675,2162253824,2148044205,2152085952,2152508443,2154212233,2147745179,584,2,16,53014
1339282574,5810,116.6800003051757800,23.4904994964599600,35.1347007751464840,242.0428009033203000,54.4419212341308600,23.4854907989501950,28.2053508758544920,113,128,92,84,59,15160,2160958994,2162160923,2165997321,2148115611,2154008009,2154379108,2156010230,2147909659,3409,2,16,40308
1339282677,5810,112.8799972534179700,23.7339000701904300,35.1172981262207000,241.8536071777343800,48.2457199096679700,23.6772308349609380,28.1366596221923830,102,132,96,83,59,15157,2164106605,2165385161,2169113069,2148190326,2155708123,2155996214,2157513051,2148046756,3281,2,16,5862
1339282815,5810,109.1699981689453100,24.2593994140625000,35.0987014770507800,241.4698028564453000,30.5716705322265620,24.2251796722412100,27.9344902038574220,91,132,92,86,59,15164,2163835977,2164578523,2167038656,2148172187,2156011666,2155921243,2156993170,2148004873,751,2,16,21128
1339283038,5808,105.5699996948242200,24.4850006103515620,35.0918998718261700,241.4700012207031200,22.3163604736328120,24.4816608428955080,27.8327503204345700,86,129,93,86,60,15171,2172216676,2173789385,2176771638,2148379291,2161855497,2161677494,2162210203,2148457033,1647,2,17,5331
1339283188,5809,100.4300003051757800,24.6138000488281250,35.0887985229492200,241.4488983154297000,18.3065299987792970,24.6063594818115230,27.7840499877929700,74,126,96,85,58,15179,2178348160,2180229723,2182795337,2148606582,2167701238,2167052553,2166365348,2148814957,2113,1,16,47550
1339283243,5808,97.5899963378906200,24.6569995880126950,35.0886993408203100,241.1542053222656200,16.9519901275634770,24.6485099792480470,27.7805194854736330,74,128,92,85,58,15174,2181544338,2183581229,2185995154,2148754678,2170894134,2169961060,2168569170,2149021842,2533,2,16,37472
1339283298,5807,94.6600036621093800,24.6648998260498050,35.0895004272460940,241.3401947021484400,16.5734500885009770,24.6602897644042970,27.7676200866699220,74,126,93,84,57,15175,2185513426,2187750820,2189962633,2148929645,2174648649,2173476443,2171263195,2149263085,2570,1,17,48885
1339283353,5806,91.6800003051757800,24.6714992523193360,35.0895996093750000,241.3892974853515600,16.2644405364990230,24.6699104309082030,27.7616004943847660,73,126,95,85,58,15170,2189595565,2192016502,2194061010,2149185600,2178581979,2177022921,2173863350,2149496393,2249,2,16,62938
1339283410,5807,88.5400009155273400,24.6840991973876950,35.0904998779296900,241.4954986572265600,15.8800001144409180,24.6818695068359380,27.7521190643310550,72,126,94,85,58,15176,2194804242,2197591634,2199520310,2149496969,2183636992,2181736713,2177493056,2149846619,2111,1,17,41024
1339283465,5807,85.5699996948242200,24.6979999542236330,35.0904998779296900,241.5449066162109400,15.2819499969482420,24.7004909515380860,27.7425804138183600,70,126,93,85,59,15173,2199296493,2202119588,2203668077,2149839323,2188465161,2186102848,2180669120,2150168118,2028,1,17,23165
1339283520,5809,82.7300033569336000,24.7698993682861330,35.0928993225097660,241.3979949951172000,13.2721204757690430,24.7630596160888670,27.7244300842285160,67,125,92,86,58,15173,2204193316,2207311314,2208712859,2150197056,2193516278,2190808265,2184037897,2150482624,1942,1,16,50937
1339283575,5810,80.2099990844726600,24.7889003753662100,35.0942993164062500,241.2492980957031200,12.4897603988647460,24.7874202728271500,27.7213802337646500,66,126,94,84,57,15165,2208960210,2212334912,2213766308,2150615853,2198789741,2195607771,2187554368,2150831149,1444,1,16,27636
1339283630,5808,77.9199981689453100,24.7999992370605470,35.0951004028320300,241.3453979492187500,12.1181001663208000,24.7989997863769530,27.7126598358154300,65,127,94,85,61,15171,2213777892,2217128886,2218197650,2151108461,2204290249,2200540790,2190979181,2151189193,1031,2,17,35177
1339283685,5804,75.7399978637695300,24.8143997192382800,35.0960998535156250,241.2971038818359400,11.6199703216552730,24.8145103454589840,27.7086601257324220,64,124,94,86,57,15172,2218311451,2221790454,2222661586,2151564982,2209813568,2205454939,2194408539,2151528813,843,2,17,56216
1339283742,5809,73.5500030517578100,24.8344001770019530,35.0974006652832000,241.4584960937500000,11.0230998992919920,24.8331108093261720,27.6940803527832030,64,125,92,85,59,15165,2223649462,2227357924,2228007716,2152191140,2215851382,2211067300,2198248850,2151919341,788,2,16,16434
1339283797,5810,71.5500030517578100,24.8512992858886720,35.0988006591796900,241.3614044189453000,10.4160995483398440,24.8520202636718750,27.6909294128417970,64,125,94,85,60,15153,2229481453,2233651200,2234201600,2152782875,2222907922,2217462747,2202805677,2152414884,603,1,16,11844
1339283852,5806,69.5299987792968800,24.8614997863769530,35.1001014709472660,241.3484039306640600,9.9998922348022460,24.8649806976318360,27.6863193511962900,63,126,94,85,57,15155,2234482331,2238749851,2239010925,2153540333,2229420763,2223033691,2206448000,2152790829,506,2,16,21921
1339283907,5806,67.4300003051757800,24.8708000183105470,35.1007003784179700,241.4143981933593800,9.7207813262939450,24.8736801147460940,27.6800498962402340,62,124,95,85,55,15152,2240905252,2245421220,2245566692,2154443574,2237924900,2231144713,2212127625,2153422491,642,2,16,31917
1339283962,5802,65.2300033569336000,24.8745994567871100,35.1006011962890600,241.3683013916015600,9.5253648757934570,24.8797702789306640,27.6797504425048830,60,123,91,84,58,15152,2196834368,2195493494,2192473462,2150690121,2203029750,2195909165,2183192502,2150459885,696,1,16,3426
1339284017,5803,62.8899993896484400,24.8784999847412100,35.0996017456054700,241.5225067138672000,9.4546527862548830,24.8819694519042970,27.6719894409179700,61,123,95,85,61,15156,2257314998,2262992749,2263621412,2157138349,2256779867,2247929901,2223598198,2154799323,764,2,16,19702
1339284095,5806,58.9599990844726560,24.8875007629394530,35.0987014770507800,241.5718994140625000,9.1184997558593750,24.8924503326416000,27.6656608581542970,59,125,93,86,56,15147,2270544868,2276307273,2275939995,2159914139,2275211273,2264486317,2234973403,2156297243,756,1,16,56393
1339284150,5807,55.6800003051757800,24.9137992858886720,35.1002998352050800,241.5500030517578000,8.1382703781127930,24.9230003356933600,27.6546592712402340,59,125,96,85,57,15141,2280490102,2286424045,2286250788,2162818075,2290963209,2278363995,2244405330,2157564123,3530,1,17,55035
1339284205,5808,52.4700012207031250,24.9347991943359380,35.1003990173339840,241.5740966796875000,7.7090802192687990,24.9363708496093750,27.6482200622558600,57,124,91,86,59,15135,2295245851,2302774509,2303225764,2166923364,2307845394,2292820096,2253847561,2159246912,2981,1,17,14372
1339284260,5810,49.2500000000000000,24.9379997253417970,35.1011009216308600,241.4862060546875000,7.4752092361450195,24.9436607360839840,27.6492290496826170,57,124,95,84,58,15132,2304834669,2312399140,2312918272,2170680000,2324479158,2307611602,2263907529,2160759753,2926,2,17,37139
1339284315,5808,45.9500007629394500,24.9409008026123050,35.1012001037597660,241.4994964599609400,7.3895478248596190,24.9463291168212900,27.6477108001709000,57,124,91,85,56,15131,2315692470,2323479040,2324166464,2175987428,2340602678,2320981851,2272532708,2162472850,3029,2,17,49055
1339284370,5813,42.6800003051757800,24.9438991546630860,35.1013984680175800,241.7030029296875000,7.2164559364318850,24.9517307281494140,27.6364097595214840,56,125,91,85,57,15131,2332715456,2341954477,2343488438,2183904155,2364830006,2342737865,2287656539,2165378066,2952,1,17,45101
1339284427,5807,39.2400016784668000,24.9470005035400400,35.1016998291015600,241.7095947265625000,7.0756230354309080,24.9561195373535160,27.6344108581542970,54,125,97,85,53,15134,2344851684,2353935232,2355265453,2191306788,2385329060,2359734217,2298559195,2168042194,3029,1,17,18036
1339284482,5805,35.8600006103515600,24.9503993988037100,35.1007995605468750,241.6351013183593800,7.0271368026733400,24.9576301574707030,27.6371402740478500,54,124,95,85,57,15132,2368536667,2380698733,2385201874,2205380288,2411542217,2382788553,2314654290,2171978834,3151,1,16,53214
1339284537,5806,32.5000000000000000,24.9508991241455080,35.1016006469726560,241.8730010986328000,6.8396868705749510,24.9634704589843750,27.6244697570800780,53,123,95,86,55,15135,2381779776,2391934994,2394388690,2215112548,2439612077,2407667785,2332094070,2175900452,3442,1,16,36135
1339284592,5805,29.1299991607666000,24.9538002014160160,35.1012001037597660,241.8903045654297000,6.7491078376770020,24.9662990570068360,27.6225700378417970,53,124,93,86,60,15142,2410570770,2423683154,2429107382,2236162432,2471278857,2434645659,2350249115,2181729042,3428,2,17,23438
1339284647,5814,25.6900005340576170,24.9577007293701170,35.1003990173339840,241.9971923828125000,6.5853600502014160,24.9713993072509770,27.6159305572509770,54,123,92,83,61,15144,2436149833,2451847131,2460684050,2261660013,2508657929,2467686153,2373120804,2187993435,3559,1,16,32602
1339284702,5810,22.2500000000000000,24.9624004364013670,35.1004981994628900,242.0585021972656200,6.3566031455993650,24.9785404205322270,27.6102695465087900,52,124,94,85,55,15137,2453701330,2468827465,2478983506,2288318427,2547514057,2501803739,2396841810,2196132534,185,1,16,10811
